Voltar ao catálogo

ADEOS 2

AtivoCiênciaSSO
NORAD 27597·PAYLOAD·🇯🇵 Japan

Lançado Dec 14, 2002 de Tanegashima Space Center

Loading…

Próximas Passagens (próximas 24 horas)

TLE

AtualizadoSource: Space-Track

Época: Sep 14, 2026, 14:22 UTC

1 27597U 02056A   26257.59881740  .00000167  00000-0  83407-4 0  9997
2 27597  98.7983 217.6608 0001603 122.2315 237.9022 14.29388388237283

Acompanhe ADEOS 2 em tempo real com AllMySat

Download on the App Store